SCP
-0 0 0 0 0 0 0 -0 -0 -0 -0 0 0 0 0 0 0 0 0 0 0 -0 -0 0 0 0 0 0 0 0 0 0 0 0 0 0 0 0 0 0 0 0 0
-0 0 0 0 0 0 0 -0 0 -0 -0 0 0 0 0 0 0 0 -0 0 0 -0 -0 0 0 0 0 0 0 0 0 -0 0 0 0 0 0 -0 -0 -0 0 0 0
-0 -0 0 0 0 0 -0 0 0 -0 0 0 0 0 0 0 0 0 0 0 0 -0 0 0 0 0 0 0 0 0 0 0 0 0 0 0 0 0 0 0 0 0 0
-0 -0 -0 0 0 0 -0 -0 0 0 0 0 0 0 0 0 0 0 0 0 0 0 0 0 0 0 0 0 0 0 0 0 0 0 0 0 0 0 0 -0 -0 0 0
-0 -0 -0 0 -0 -0 -0 -0 -0 0 0 -0 -0 0 0 0 0 0 0 0 0 0 0 0 0 0 0 0 0 0 -0 0 0 0 0 0 0 -0 -0 -0 -0 0 0
-0 -0 -0 -0 -0 -0 -0 -0 -0 0 -0 -0 -0 0 0 0 0 0 0 0 0 -0 0 0 0 0 0 0 0 0 -0 -0 0 0 0 0 -0 0 -0 -0 0 0 0
-0 -0 -0 0 -0 0 0 -0 -0 0 -0 -0 -0 -0 0 0 0 0 0 0 0 0 -0 -0 0 0 0 0 -0 -0 0 -0 0 -0 -0 -0 -0 -0 0 -0 0 0 -0
-0 -0 -0 -0 0 0 0 0 0 0 -0 -0 -0 0 0 0 0 0 0 0 0 -0 -0 -0 0 0 0 0 -0 -0 0 0 -0 -0 -0 -0 -0 0 0 0 0 -0 -0
-0 -0 -0 0 0 0 0 0 0 0 0 0 -0 -0 0 0 0 -0 0 0 0 0 0 0 0 0 -0 0 -0 -0 -0 0 0 0 -0 -0 -0 0 0 0 0 0 -0
-0 -0 -0 0 0 0 0 0 0 0 0 0 -0 -0 -0 -0 -0 0 0 0 0 0 0 -0 -0 0 0 0 -0 0 -0 -0 -0 -0 0 0 0 -0 -0 0 0 0 -0
-0 -0 -0 -0 0 0 0 0 0 0 0 0 0 0 0 0 0 0 0 0 0 0 0 0 0 0 0 0 0 -0 -0 -0 -0 -0 0 0 0 0 0 -0 -0 -0 0
-0 -0 -0 -0 0 0 0 0 0 0 0 0 0 0 0 0 0 0 0 0 0 0 0 -0 0 0 0 0 0 0 -0 -0 -0 -0 0 0 0 0 -0 -0 0 0 0
-0 -0 -0 -0 -0 -0 -0 0 0 0 0 0 0 0 0 0 0 0 0 0 0 0 -0 -0 -0 0 0 0 0 0 0 -0 -0 0 0 0 -0 0 0 0 0 0 0
-0 -0 -0 -0 -0 -0 0 0 0 0 0 0 0 0 0 0 0 0 0 0 0 0 -0 -0 -0 -0 0 0 0 0 0 -0 -0 -0 -0 0 0 0 0 0 0 0 0
-0 -0 -0 -0 -0 -0 0 0 0 0 0 0 0 0 0 0 0 0 0 0 0 -0 0 0 0 0 -0 0 0 0 0 0 -0 -0 0 0 0 0 0 0 0 0 0
-0 -0 -0 -0 -0 -0 0 -0 -0 0 -0 -0 0 0 0 -0 -0 0 0 -0 0 -0 -0 -0 -0 0 0 0 0 0 0 0 -0 -0 0 0 0 0 0 0 0 0 0
-0 -0 -0 -0 -0 -0 0 -0 -0 -0 0 -0 -0 -0 0 0 -0 -0 -0 -0 -0 -0 0 0 -0 -0 -0 0 0 0 0 0 -0 -0 0 0 0 0 0 0 0 0 0
-0 -0 -0 -0 0 0 0 0 -0 -0 -0 -0 -0 0 -0 0 -0 -0 -0 -0 0 0 0 -0 -0 -0 -0 -0 0 0 0 -0 -0 -0 0 0 0 0 0 0 0 0 0
-0 -0 -0 0 0 0 0 -0 -0 -0 -0 -0 0 0 0 0 0 0 -0 0 0 -0 -0 0 -0 -0 -0 -0 -0 0 0 0 0 0 0 0 0 0 0 0 0 0 0
-0 -0 0 0 0 0 0 0 0 -0 -0 -0 -0 0 0 0 0 0 0 0 0 0 -0 -0 0 0 -0 0 0 0 0 0 0 0 0 0 0 0 0 0 0 0 0
0 0 0 0 0 0 0 0 0 0 0 0 0 0 0 0 0 0 0 0 0 0 0 0 -0 0 0 0 0 0 0 0 0 0 0 0 0 0 0 0 0 0 0
0 0 0 0 0 0 0 0 0 0 0 0 0 0 0 0 0 0 0 0 0 0 0 0 0 0 0 0 0 0 0 0 0 0 0 0 0 0 0 0 0 0 0
0 0 0 0 0 0 0 0 0 0 0 0 0 0 0 0 0 0 0 0 0 0 0 0 0 0 0 0 0 0 0 0 0 0 0 0 0 0 0 0 0 0 0
0 0 0 0 0 0 0 0 0 0 0 0 0 0 0 0 0 0 0 0 0 0 0 0 0 0 0 0 0 0 0 0 0 0 0 0 0 0 0 0 0 0 0
0 0 0 0 0 0 0 0 0 0 0 0 0 0 0 0 0 0 0 0 0 0 0 0 0 0 0 0 0 0 0 0 0 0 0 0 0 0 0 0 0 0 0
0 0 0 0 0 0 0 0 0 0 0 0 0 0 0 0 0 0 0 0 0 0 0 0 0 0 0 0 0 0 0 0 0 0 0 0 0 0 0 0 0 0 0
Wind_Speed_500mb
26 22 17 12 12 9 10 14 16 18 17 12 9 6 3 4 5 3 8 7 10 15 17 18 13 16 18 15 14 25 32 32 51 86 101 92 89 84 73 72 64 56 47
25 20 14 10 11 8 13 14 16 16 16 12 10 8 6 4 3 4 7 15 17 14 15 15 18 20 18 24 25 36 32 37 73 80 104 90 87 74 68 60 52 48 44
24 18 14 9 9 10 15 14 17 16 15 13 12 11 10 8 5 10 11 17 20 17 21 15 25 26 23 29 31 42 51 53 70 96 94 83 79 67 60 55 53 46 39
23 18 14 10 10 14 19 18 17 17 16 15 17 15 15 12 11 14 18 21 24 20 23 20 25 28 23 33 45 50 59 65 68 94 92 82 77 68 63 58 50 45 45
24 20 16 13 14 21 22 20 18 19 19 18 21 20 16 15 14 15 24 20 29 33 28 27 26 26 22 35 47 49 59 70 73 91 87 88 75 71 56 45 41 41 36
27 23 19 18 22 23 25 24 21 19 20 20 19 16 18 15 23 18 17 21 20 24 29 29 31 36 31 31 46 49 54 74 77 92 92 87 81 68 53 42 50 42 33
30 27 24 23 23 24 25 25 22 22 22 20 19 17 17 20 16 10 16 19 18 20 27 33 45 46 43 42 43 46 47 60 65 87 80 77 73 58 49 42 38 34 30
33 30 28 28 25 24 23 23 22 20 18 16 19 20 18 19 16 11 15 21 25 21 27 31 39 37 39 47 52 48 43 43 56 68 63 71 54 48 46 39 39 33 34
36 34 32 29 26 25 23 22 23 22 18 14 13 20 20 24 19 18 19 25 26 30 28 28 31 39 48 51 49 56 55 52 52 52 50 53 45 43 41 42 38 36 37
39 38 35 30 30 25 22 20 22 22 18 14 14 18 20 24 23 19 21 30 30 35 33 39 43 57 49 44 44 45 48 42 40 44 47 45 43 38 40 35 36 28 29
39 39 38 33 30 24 21 18 20 21 19 18 18 20 21 25 27 19 24 29 36 34 36 39 52 46 41 36 38 30 36 41 43 38 43 47 47 44 43 31 34 22 24
42 40 39 36 30 28 25 23 19 20 20 23 22 23 22 30 29 30 29 29 33 34 35 41 44 42 39 42 42 42 42 44 35 35 37 38 38 35 29 33 37 29 34
45 43 40 38 33 32 29 27 21 21 20 23 25 24 24 23 30 31 27 30 41 30 35 45 44 42 39 40 41 39 38 31 33 32 31 30 29 29 35 35 36 33 28
49 46 43 42 38 35 31 28 24 23 24 24 25 25 26 26 29 34 36 39 35 32 40 40 46 40 39 37 40 38 25 28 30 28 27 28 32 32 31 32 33 33 28
52 49 47 43 45 40 36 32 29 25 25 27 26 27 30 30 30 32 35 34 33 30 40 42 41 33 30 32 28 28 23 30 26 26 27 29 29 29 29 32 30 28 28
57 53 51 47 45 42 41 36 38 32 30 27 32 29 26 26 32 33 33 35 36 37 37 33 34 37 37 37 36 33 29 30 26 26 27 29 31 30 29 29 28 26 23
63 57 52 50 46 47 45 40 40 42 35 32 29 28 34 35 32 34 36 34 31 33 31 33 34 37 39 40 40 40 38 33 31 29 29 30 30 29 33 30 31 28 25
66 62 57 56 49 48 46 42 40 40 43 44 44 38 33 28 33 38 38 39 42 43 35 34 37 37 39 40 41 42 40 37 36 34 33 33 34 34 34 32 32 33 37
63 60 59 51 51 49 46 44 42 40 38 39 39 49 46 41 40 39 40 43 40 42 42 38 38 39 39 41 42 43 43 44 42 39 40 39 39 38 36 36 38 44 52
65 62 60 53 53 53 51 48 47 45 43 42 42 38 48 51 51 53 56 56 45 44 43 45 43 41 41 42 44 46 47 49 49 47 46 45 44 43 40 41 44 58 55
68 67 68 58 54 54 56 55 52 50 49 47 46 43 48 52 49 48 49 58 55 51 48 48 48 49 49 48 46 47 49 50 51 52 51 51 50 52 55 59 64 55 54
69 66 71 69 57 56 57 57 56 55 54 52 49 46 54 52 46 48 49 48 51 54 52 50 51 51 51 52 53 53 53 54 53 52 52 52 52 53 53 62 68 56 58
69 68 64 72 67 61 60 57 58 59 57 55 52 52 58 57 53 49 48 47 48 49 51 55 54 53 52 53 53 55 56 56 54 54 53 51 54 54 55 73 72 71 78
71 70 70 67 73 66 63 63 62 62 59 58 57 57 56 57 61 56 54 50 49 48 49 52 54 54 51 52 52 52 53 50 49 52 58 60 60 65 65 66 70 67 78
67 68 69 65 65 74 63 62 60 61 61 61 62 60 60 59 56 60 56 57 54 51 52 52 54 57 61 60 57 57 57 60 60 58 57 59 61 69 73 79 81 86 80
57 60 58 57 55 53 55 47 50 52 59 58 59 58 58 58 58 54 52 53 55 55 56 52 56 57 56 58 61 63 65 66 65 66 67 63 60 59 65 73 79 78 85
Wind_Direction_500mb
167 169 172 165 161 151 152 154 166 173 176 172 172 176 177 200 207 201 203 176 173 175 183 193 181 174 161 166 167 145 132 151 129 138 148 144 143 149 153 148 145 146 148
167 169 176 172 181 173 158 156 168 176 172 172 161 166 167 185 164 193 100 155 154 163 178 158 158 155 132 139 141 148 148 119 138 126 142 151 150 145 139 138 136 139 143
166 165 169 172 174 177 156 156 165 172 171 161 151 148 151 133 111 89 99 114 135 134 128 121 135 150 140 143 146 137 133 141 152 142 147 149 142 144 140 139 141 134 141
163 160 160 154 161 155 152 146 154 161 156 153 144 139 125 112 97 89 102 103 122 134 126 127 136 145 140 138 142 136 136 149 144 138 145 146 148 149 151 142 136 147 146
158 154 146 142 142 145 144 141 150 153 151 146 144 137 125 111 111 96 101 104 114 113 113 117 125 141 147 147 147 151 150 151 154 149 146 146 148 151 144 139 137 143 143
157 152 141 138 140 142 141 139 138 137 136 143 143 144 131 136 119 112 103 106 112 112 114 117 120 130 129 148 152 153 157 157 157 157 158 155 153 156 153 147 147 149 140
159 156 148 143 144 140 140 139 142 144 143 144 148 149 145 161 152 126 128 126 119 122 116 114 124 116 112 123 154 154 156 167 167 162 160 163 163 162 157 154 152 149 159
164 162 156 150 144 140 141 145 146 149 146 153 155 154 152 162 153 150 147 139 132 131 120 121 123 126 122 128 133 131 140 156 165 165 163 165 163 165 163 160 153 161 157
168 168 163 163 155 145 140 143 151 148 141 131 143 144 142 151 138 133 126 141 135 135 122 121 128 139 126 133 135 133 134 134 144 155 160 160 163 164 160 160 160 153 156
173 173 171 165 162 154 143 133 148 153 148 138 127 134 149 158 148 138 125 142 136 135 127 123 123 124 125 127 131 133 135 138 146 155 160 167 169 169 166 156 159 164 171
175 174 175 174 173 170 159 149 147 149 156 145 137 134 140 149 151 130 133 145 145 131 127 126 129 126 124 133 138 139 147 145 142 143 156 163 167 169 166 162 171 185 186
177 176 178 180 178 183 174 166 153 158 153 147 139 133 138 139 142 138 131 144 144 147 138 144 135 137 136 138 138 142 145 145 142 143 146 153 160 165 173 181 185 180 191
181 181 181 181 178 182 176 173 163 159 159 156 147 148 145 147 145 145 136 143 145 134 148 157 149 145 144 146 149 154 158 152 153 151 153 159 167 175 192 194 197 202 207
182 184 184 183 183 183 184 183 177 173 174 166 165 160 157 153 155 148 147 150 150 151 155 160 160 155 147 158 153 150 145 152 159 162 163 166 179 182 185 194 200 204 206
185 186 186 187 189 190 187 190 188 187 183 181 176 174 174 173 178 172 166 167 164 168 165 163 168 171 172 171 174 173 168 168 163 172 175 179 177 177 186 192 195 192 194
187 190 191 190 194 196 195 196 191 192 189 185 191 182 186 188 195 181 179 179 181 182 176 181 184 189 191 193 192 193 192 191 188 187 189 188 189 188 188 189 191 188 195
192 193 194 191 196 195 199 201 201 203 200 198 193 178 187 203 196 189 187 186 186 187 187 195 197 198 200 203 204 206 207 207 204 203 202 200 199 196 202 196 197 199 192
196 198 194 195 198 197 200 202 205 208 207 207 201 204 199 196 199 203 199 200 202 204 203 207 207 208 207 209 211 212 214 215 213 211 211 209 206 204 205 205 202 197 192
196 199 198 201 201 199 200 199 201 202 204 205 206 210 213 208 207 208 211 213 215 218 216 214 216 215 216 216 217 217 217 217 219 216 215 214 212 208 213 207 207 203 209
201 199 199 201 202 203 201 202 202 204 205 206 208 214 214 214 216 218 219 217 217 224 225 225 224 222 222 222 220 219 221 221 222 220 219 219 217 216 214 208 209 215 221
200 202 204 198 203 206 205 205 204 206 209 210 211 213 216 215 215 219 223 225 225 225 228 228 229 228 227 225 224 224 224 224 224 225 223 222 220 218 212 209 217 230 217
200 199 202 203 204 205 206 207 209 209 211 212 213 216 225 225 217 221 222 226 225 227 228 230 230 229 230 229 228 228 228 228 228 228 227 226 225 222 216 216 223 223 209
203 199 202 203 207 209 207 206 209 212 215 215 213 213 221 221 218 219 224 225 228 225 225 225 229 229 228 229 228 230 232 233 234 233 231 228 226 224 216 222 230 221 220
208 203 204 202 206 211 211 210 212 213 213 216 218 218 224 226 225 223 225 226 226 229 229 227 226 227 229 228 229 229 231 233 232 232 233 234 227 226 220 225 221 211 216
211 211 206 206 204 208 214 216 217 219 221 220 220 222 225 230 231 230 225 226 229 230 232 232 230 230 229 226 229 232 239 245 247 242 237 235 226 228 230 231 228 222 214
211 214 210 207 204 201 207 217 226 230 229 228 223 227 229 228 232 232 228 225 226 229 235 236 236 237 238 240 240 241 245 250 251 251 249 247 236 218 221 223 222 223 210
Wind_Speed_850mb
26 22 17 12 12 9 10 14 16 18 17 12 9 6 3 4 5 3 8 7 10 15 17 18 13 16 18 15 14 25 32 32 51 86 101 92 89 84 73 72 64 56 47
25 20 14 10 11 8 13 14 16 16 16 12 10 8 6 4 3 4 7 15 17 14 15 15 18 20 18 24 25 36 32 37 73 80 104 90 87 74 68 60 52 48 44
24 18 14 9 9 10 15 14 17 16 15 13 12 11 10 8 5 10 11 17 20 17 21 15 25 26 23 29 31 42 51 53 70 96 94 83 79 67 60 55 53 46 39
23 18 14 10 10 14 19 18 17 17 16 15 17 15 15 12 11 14 18 21 24 20 23 20 25 28 23 33 45 50 59 65 68 94 92 82 77 68 63 58 50 45 45
24 20 16 13 14 21 22 20 18 19 19 18 21 20 16 15 14 15 24 20 29 33 28 27 26 26 22 35 47 49 59 70 73 91 87 88 75 71 56 45 41 41 36
27 23 19 18 22 23 25 24 21 19 20 20 19 16 18 15 23 18 17 21 20 24 29 29 31 36 31 31 46 49 54 74 77 92 92 87 81 68 53 42 50 42 33
30 27 24 23 23 24 25 25 22 22 22 20 19 17 17 20 16 10 16 19 18 20 27 33 45 46 43 42 43 46 47 60 65 87 80 77 73 58 49 42 38 34 30
33 30 28 28 25 24 23 23 22 20 18 16 19 20 18 19 16 11 15 21 25 21 27 31 39 37 39 47 52 48 43 43 56 68 63 71 54 48 46 39 39 33 34
36 34 32 29 26 25 23 22 23 22 18 14 13 20 20 24 19 18 19 25 26 30 28 28 31 39 48 51 49 56 55 52 52 52 50 53 45 43 41 42 38 36 37
39 38 35 30 30 25 22 20 22 22 18 14 14 18 20 24 23 19 21 30 30 35 33 39 43 57 49 44 44 45 48 42 40 44 47 45 43 38 40 35 36 28 29
39 39 38 33 30 24 21 18 20 21 19 18 18 20 21 25 27 19 24 29 36 34 36 39 52 46 41 36 38 30 36 41 43 38 43 47 47 44 43 31 34 22 24
42 40 39 36 30 28 25 23 19 20 20 23 22 23 22 30 29 30 29 29 33 34 35 41 44 42 39 42 42 42 42 44 35 35 37 38 38 35 29 33 37 29 34
45 43 40 38 33 32 29 27 21 21 20 23 25 24 24 23 30 31 27 30 41 30 35 45 44 42 39 40 41 39 38 31 33 32 31 30 29 29 35 35 36 33 28
49 46 43 42 38 35 31 28 24 23 24 24 25 25 26 26 29 34 36 39 35 32 40 40 46 40 39 37 40 38 25 28 30 28 27 28 32 32 31 32 33 33 28
52 49 47 43 45 40 36 32 29 25 25 27 26 27 30 30 30 32 35 34 33 30 40 42 41 33 30 32 28 28 23 30 26 26 27 29 29 29 29 32 30 28 28
57 53 51 47 45 42 41 36 38 32 30 27 32 29 26 26 32 33 33 35 36 37 37 33 34 37 37 37 36 33 29 30 26 26 27 29 31 30 29 29 28 26 23
63 57 52 50 46 47 45 40 40 42 35 32 29 28 34 35 32 34 36 34 31 33 31 33 34 37 39 40 40 40 38 33 31 29 29 30 30 29 33 30 31 28 25
66 62 57 56 49 48 46 42 40 40 43 44 44 38 33 28 33 38 38 39 42 43 35 34 37 37 39 40 41 42 40 37 36 34 33 33 34 34 34 32 32 33 37
63 60 59 51 51 49 46 44 42 40 38 39 39 49 46 41 40 39 40 43 40 42 42 38 38 39 39 41 42 43 43 44 42 39 40 39 39 38 36 36 38 44 52
65 62 60 53 53 53 51 48 47 45 43 42 42 38 48 51 51 53 56 56 45 44 43 45 43 41 41 42 44 46 47 49 49 47 46 45 44 43 40 41 44 58 55
68 67 68 58 54 54 56 55 52 50 49 47 46 43 48 52 49 48 49 58 55 51 48 48 48 49 49 48 46 47 49 50 51 52 51 51 50 52 55 59 64 55 54
69 66 71 69 57 56 57 57 56 55 54 52 49 46 54 52 46 48 49 48 51 54 52 50 51 51 51 52 53 53 53 54 53 52 52 52 52 53 53 62 68 56 58
69 68 64 72 67 61 60 57 58 59 57 55 52 52 58 57 53 49 48 47 48 49 51 55 54 53 52 53 53 55 56 56 54 54 53 51 54 54 55 73 72 71 78
71 70 70 67 73 66 63 63 62 62 59 58 57 57 56 57 61 56 54 50 49 48 49 52 54 54 51 52 52 52 53 50 49 52 58 60 60 65 65 66 70 67 78
67 68 69 65 65 74 63 62 60 61 61 61 62 60 60 59 56 60 56 57 54 51 52 52 54 57 61 60 57 57 57 60 60 58 57 59 61 69 73 79 81 86 80
57 60 58 57 55 53 55 47 50 52 59 58 59 58 58 58 58 54 52 53 55 55 56 52 56 57 56 58 61 63 65 66 65 66 67 63 60 59 65 73 79 78 85
Wind_Direction_850mb
167 169 172 165 161 151 152 154 166 173 176 172 172 176 177 200 207 201 203 176 173 175 183 193 181 174 161 166 167 145 132 151 129 138 148 144 143 149 153 148 145 146 148
167 169 176 172 181 173 158 156 168 176 172 172 161 166 167 185 164 193 100 155 154 163 178 158 158 155 132 139 141 148 148 119 138 126 142 151 150 145 139 138 136 139 143
166 165 169 172 174 177 156 156 165 172 171 161 151 148 151 133 111 89 99 114 135 134 128 121 135 150 140 143 146 137 133 141 152 142 147 149 142 144 140 139 141 134 141
163 160 160 154 161 155 152 146 154 161 156 153 144 139 125 112 97 89 102 103 122 134 126 127 136 145 140 138 142 136 136 149 144 138 145 146 148 149 151 142 136 147 146
158 154 146 142 142 145 144 141 150 153 151 146 144 137 125 111 111 96 101 104 114 113 113 117 125 141 147 147 147 151 150 151 154 149 146 146 148 151 144 139 137 143 143
157 152 141 138 140 142 141 139 138 137 136 143 143 144 131 136 119 112 103 106 112 112 114 117 120 130 129 148 152 153 157 157 157 157 158 155 153 156 153 147 147 149 140
159 156 148 143 144 140 140 139 142 144 143 144 148 149 145 161 152 126 128 126 119 122 116 114 124 116 112 123 154 154 156 167 167 162 160 163 163 162 157 154 152 149 159
164 162 156 150 144 140 141 145 146 149 146 153 155 154 152 162 153 150 147 139 132 131 120 121 123 126 122 128 133 131 140 156 165 165 163 165 163 165 163 160 153 161 157
168 168 163 163 155 145 140 143 151 148 141 131 143 144 142 151 138 133 126 141 135 135 122 121 128 139 126 133 135 133 134 134 144 155 160 160 163 164 160 160 160 153 156
173 173 171 165 162 154 143 133 148 153 148 138 127 134 149 158 148 138 125 142 136 135 127 123 123 124 125 127 131 133 135 138 146 155 160 167 169 169 166 156 159 164 171
175 174 175 174 173 170 159 149 147 149 156 145 137 134 140 149 151 130 133 145 145 131 127 126 129 126 124 133 138 139 147 145 142 143 156 163 167 169 166 162 171 185 186
177 176 178 180 178 183 174 166 153 158 153 147 139 133 138 139 142 138 131 144 144 147 138 144 135 137 136 138 138 142 145 145 142 143 146 153 160 165 173 181 185 180 191
181 181 181 181 178 182 176 173 163 159 159 156 147 148 145 147 145 145 136 143 145 134 148 157 149 145 144 146 149 154 158 152 153 151 153 159 167 175 192 194 197 202 207
182 184 184 183 183 183 184 183 177 173 174 166 165 160 157 153 155 148 147 150 150 151 155 160 160 155 147 158 153 150 145 152 159 162 163 166 179 182 185 194 200 204 206
185 186 186 187 189 190 187 190 188 187 183 181 176 174 174 173 178 172 166 167 164 168 165 163 168 171 172 171 174 173 168 168 163 172 175 179 177 177 186 192 195 192 194
187 190 191 190 194 196 195 196 191 192 189 185 191 182 186 188 195 181 179 179 181 182 176 181 184 189 191 193 192 193 192 191 188 187 189 188 189 188 188 189 191 188 195
192 193 194 191 196 195 199 201 201 203 200 198 193 178 187 203 196 189 187 186 186 187 187 195 197 198 200 203 204 206 207 207 204 203 202 200 199 196 202 196 197 199 192
196 198 194 195 198 197 200 202 205 208 207 207 201 204 199 196 199 203 199 200 202 204 203 207 207 208 207 209 211 212 214 215 213 211 211 209 206 204 205 205 202 197 192
196 199 198 201 201 199 200 199 201 202 204 205 206 210 213 208 207 208 211 213 215 218 216 214 216 215 216 216 217 217 217 217 219 216 215 214 212 208 213 207 207 203 209
201 199 199 201 202 203 201 202 202 204 205 206 208 214 214 214 216 218 219 217 217 224 225 225 224 222 222 222 220 219 221 221 222 220 219 219 217 216 214 208 209 215 221
200 202 204 198 203 206 205 205 204 206 209 210 211 213 216 215 215 219 223 225 225 225 228 228 229 228 227 225 224 224 224 224 224 225 223 222 220 218 212 209 217 230 217
200 199 202 203 204 205 206 207 209 209 211 212 213 216 225 225 217 221 222 226 225 227 228 230 230 229 230 229 228 228 228 228 228 228 227 226 225 222 216 216 223 223 209
203 199 202 203 207 209 207 206 209 212 215 215 213 213 221 221 218 219 224 225 228 225 225 225 229 229 228 229 228 230 232 233 234 233 231 228 226 224 216 222 230 221 220
208 203 204 202 206 211 211 210 212 213 213 216 218 218 224 226 225 223 225 226 226 229 229 227 226 227 229 228 229 229 231 233 232 232 233 234 227 226 220 225 221 211 216
211 211 206 206 204 208 214 216 217 219 221 220 220 222 225 230 231 230 225 226 229 230 232 232 230 230 229 226 229 232 239 245 247 242 237 235 226 228 230 231 228 222 214
211 214 210 207 204 201 207 217 226 230 229 228 223 227 229 228 232 232 228 225 226 229 235 236 236 237 238 240 240 241 245 250 251 251 249 247 236 218 221 223 222 223 210